Location: Berville
(49.1893°N, 2.0748°E)
Time: 17:05:52
(UTC+00:00)

ADEOS - Pass Details

Date: 08 February 2023
Orbit: 792 x 793 km, 98.9° (Epoch: 29 March)

Event Time Altitude Azimuth Distance (km) Brightness Sun altitude
Rises 17:37:55 0° 170° (S) 3,281 6.8 -6.8°
Reaches altitude 10° 17:40:14 10° 173° (S) 2,355 6.1 -7.1°
Maximum altitude 17:45:25 69° 256° (WSW) 850 4.0 -8.0°
Drops below altitude 10° 17:50:39 10° 341° (NNW) 2,372 6.1 -8.8°
Sets 17:53:00 0° 344° (NNW) 3,306 6.8 -9.2°
